Weather History for Yankton, SD

Change the Weather History Date:

Thursday, November 22, 2012

  Actual Average Record
Temperature  
Mean Temperature 42 °F -  
Max Temperature 55 °F 42 °F 71 °F (1960)
Min Temperature 28 °F 21 °F -3 °F (1964)
Degree Days  
Heating Degree Days 24    
Moisture  
Dew Point 31 °F    
Average Humidity 57    
Maximum Humidity 71    
Minimum Humidity 35    
Precipitation  
Precipitation 0.00 in - - ()
Sea Level Pressure  
Sea Level Pressure 29.93 in    
Wind  
Wind Speed 16 mph (WNW)    
Max Wind Speed 34 mph    
Max Gust Speed 44 mph    
Visibility 10 miles    
Events      
Averages and records for this station are not official NWS values.
T = Trace of Precipitation, MM = Missing Value Source: NWS Daily Summary

Daily Weather History Graph

Daily Weather History Graph

Search for Another Location

Airport:

Trip Planner

Search our weather history database for the weather conditions in past years. The results will help you decide how hot, cold, wet, or windy it might be!

Date:

Astronomy

Nov. 22, 2012 Rise Set
Actual Time 7:31 AM CST 5:00 PM CST
Civil Twilight 6:59 AM CST 5:31 PM CST
Nautical Twilight 6:25 AM CST 6:06 PM CST
Astronomical Twilight 5:51 AM CST 6:39 PM CST
Moon 1:53 PM CST (11/22) 1:44 AM CST (11/22)
Length of Visible Light 10h 31m
Length of Day
9h 29m
Waxing Gibbous, 71% of the Moon is Illuminated
Nov 22
Waxing Gibbous
Nov 28
Full
Dec 6
Last Quarter
Dec 13
New
Dec 19
First Quarter

Hourly Weather History & Observations

Time (CST) Temp. Windchill Dew Point Humidity Pressure Visibility Wind Dir Wind Speed Gust Speed Precip Events Conditions
12:15 AM 55.4 °F - 33.8 °F 44% 29.68 in 10.0 mi SSW 13.8 mph 20.7 mph N/A   Clear
12:35 AM 55.4 °F - 33.8 °F 44% 29.68 in 10.0 mi SSW 11.5 mph - N/A   Clear
12:55 AM 55.4 °F - 33.8 °F 44% 29.68 in 10.0 mi SW 6.9 mph - N/A   Clear
1:15 AM 53.6 °F - 33.8 °F 47% 29.68 in 10.0 mi SW 6.9 mph - N/A   Clear
1:35 AM 53.6 °F - 35.6 °F 51% 29.67 in 10.0 mi SSW 11.5 mph - N/A   Clear
1:55 AM 53.6 °F - 33.8 °F 47% 29.67 in 10.0 mi SSW 11.5 mph - N/A   Clear
2:15 AM 53.6 °F - 33.8 °F 47% 29.66 in 10.0 mi SSW 12.7 mph - N/A   Clear
2:35 AM 53.6 °F - 33.8 °F 47% 29.66 in 10.0 mi SSW 10.4 mph - N/A   Clear
2:55 AM 51.8 °F - 33.8 °F 50% 29.65 in 10.0 mi SSW 13.8 mph - N/A   Clear
3:15 AM 51.8 °F - 33.8 °F 50% 29.65 in 10.0 mi SSW 13.8 mph - N/A   Clear
3:35 AM 51.8 °F - 33.8 °F 50% 29.64 in 10.0 mi SSW 11.5 mph - N/A   Clear
3:55 AM 50.0 °F - 33.8 °F 54% 29.66 in 10.0 mi SW 9.2 mph - N/A   Clear
4:15 AM 48.2 °F - 30.2 °F 50% 29.66 in 10.0 mi WSW 5.8 mph - N/A   Clear
4:35 AM 48.2 °F - 30.2 °F 50% 29.66 in 10.0 mi East 3.5 mph - N/A   Clear
4:55 AM 48.2 °F - 30.2 °F 50% 29.67 in 10.0 mi Calm Calm - N/A   Clear
5:15 AM 53.6 °F - 26.6 °F 35% 29.68 in 10.0 mi West 16.1 mph - N/A   Clear
5:35 AM 51.8 °F - 26.6 °F 38% 29.67 in 10.0 mi WSW 13.8 mph - N/A   Clear
5:55 AM 51.8 °F - 26.6 °F 38% 29.68 in 10.0 mi West 13.8 mph - N/A   Clear
6:15 AM 48.2 °F - 26.6 °F 43% 29.69 in 10.0 mi West 10.4 mph - N/A   Clear
6:35 AM 48.2 °F - 28.4 °F 46% 29.72 in 10.0 mi West 12.7 mph - N/A   Clear
6:55 AM 48.2 °F - 30.2 °F 50% 29.73 in 10.0 mi West 10.4 mph 18.4 mph N/A   Clear
7:15 AM 46.4 °F 40.7 °F 30.2 °F 53% 29.74 in 10.0 mi West 12.7 mph - N/A   Clear
7:35 AM 46.4 °F 41.1 °F 33.8 °F 62% 29.76 in 10.0 mi West 11.5 mph - N/A   Clear
7:55 AM 46.4 °F 40.7 °F 33.8 °F 62% 29.77 in 10.0 mi West 12.7 mph - N/A   Clear
8:15 AM 48.2 °F - 35.6 °F 62% 29.78 in 10.0 mi WNW 16.1 mph - N/A   Clear
8:35 AM 50.0 °F - 35.6 °F 58% 29.79 in 10.0 mi NW 16.1 mph 20.7 mph N/A   Clear
8:55 AM 50.0 °F - 35.6 °F 58% 29.81 in 10.0 mi NW 21.9 mph 31.1 mph N/A   Clear
9:15 AM 50.0 °F - 37.4 °F 62% 29.81 in 10.0 mi WNW 26.5 mph 34.5 mph N/A   Clear
9:35 AM 50.0 °F - 37.4 °F 62% 29.83 in 10.0 mi NW 25.3 mph 31.1 mph N/A   Clear
9:55 AM 48.2 °F - 37.4 °F 66% 29.85 in 10.0 mi WNW 24.2 mph 34.5 mph N/A   Clear
10:15 AM 48.2 °F - 37.4 °F 66% 29.87 in 10.0 mi WNW 28.8 mph 35.7 mph N/A   Clear
10:35 AM 50.0 °F - 37.4 °F 62% 29.87 in 10.0 mi NW 25.3 mph 40.3 mph N/A   Clear
10:55 AM 50.0 °F - 37.4 °F 62% 29.89 in 10.0 mi WNW 34.5 mph 42.6 mph N/A   Clear
11:15 AM 51.8 °F - 35.6 °F 54% 29.90 in 7.0 mi NW 31.1 mph 41.4 mph N/A   Clear
11:35 AM 51.8 °F - 37.4 °F 58% 29.92 in 10.0 mi NW 28.8 mph 35.7 mph N/A   Clear
11:55 AM 51.8 °F - 35.6 °F 54% 29.93 in 5.0 mi NW 34.5 mph 43.7 mph N/A   Clear
12:15 PM 51.8 °F - 35.6 °F 54% 29.93 in 10.0 mi NW 31.1 mph 38.0 mph N/A   Clear
12:35 PM 51.8 °F - 35.6 °F 54% 29.94 in 10.0 mi WNW 31.1 mph 34.5 mph N/A   Scattered Clouds
12:55 PM 48.2 °F - 35.6 °F 62% 29.96 in 10.0 mi NW 25.3 mph 35.7 mph N/A   Overcast
1:15 PM 46.4 °F 37.4 °F 35.6 °F 66% 29.97 in 10.0 mi NW 28.8 mph 33.4 mph N/A   Mostly Cloudy
1:35 PM 46.4 °F 37.7 °F 37.4 °F 71% 29.97 in 10.0 mi NW 26.5 mph 33.4 mph N/A   Scattered Clouds
1:55 PM 46.4 °F 37.5 °F 37.4 °F 71% 29.98 in 10.0 mi NW 27.6 mph 35.7 mph N/A   Mostly Cloudy
2:15 PM 46.4 °F 38.5 °F 37.4 °F 71% 30.00 in 10.0 mi NW 21.9 mph 28.8 mph N/A   Overcast
2:35 PM 46.4 °F 39.0 °F 37.4 °F 71% 30.00 in 10.0 mi NW 19.6 mph 26.5 mph N/A   Mostly Cloudy
2:55 PM 48.2 °F - 37.4 °F 66% 30.02 in 10.0 mi NW 20.7 mph 26.5 mph N/A   Mostly Cloudy
3:15 PM 48.2 °F - 35.6 °F 62% 30.01 in 10.0 mi WNW 31.1 mph 35.7 mph N/A   Mostly Cloudy
3:35 PM 48.2 °F - 33.8 °F 58% 30.03 in 10.0 mi WNW 28.8 mph 36.8 mph N/A   Partly Cloudy
3:55 PM 48.2 °F - 32.0 °F 54% 30.04 in 10.0 mi WNW 27.6 mph 34.5 mph N/A   Clear
4:15 PM 46.4 °F 38.3 °F 32.0 °F 57% 30.06 in 10.0 mi WNW 23.0 mph 29.9 mph N/A   Clear
4:35 PM 46.4 °F 39.8 °F 30.2 °F 53% 30.08 in 10.0 mi NW 16.1 mph 25.3 mph N/A   Clear
4:55 PM 46.4 °F 38.7 °F 30.2 °F 53% 30.09 in 10.0 mi WNW 20.7 mph 28.8 mph N/A   Clear
5:15 PM 44.6 °F 37.2 °F 30.2 °F 57% 30.10 in 10.0 mi WNW 17.3 mph 25.3 mph N/A   Clear
5:35 PM 42.8 °F 34.8 °F 30.2 °F 61% 30.11 in 10.0 mi WNW 17.3 mph - N/A   Clear
5:55 PM 42.8 °F 35.8 °F 30.2 °F 61% 30.12 in 10.0 mi WNW 13.8 mph - N/A   Clear
6:15 PM 41.0 °F 33.1 °F 28.4 °F 61% 30.14 in 10.0 mi WNW 15.0 mph - N/A   Clear
6:35 PM 41.0 °F 32.8 °F 28.4 °F 61% 30.15 in 10.0 mi WNW 16.1 mph - N/A   Clear
6:55 PM 39.2 °F 29.6 °F 28.4 °F 65% 30.17 in 10.0 mi NW 19.6 mph 24.2 mph N/A   Clear
7:15 PM 39.2 °F 30.2 °F 26.6 °F 61% 30.17 in 10.0 mi NW 17.3 mph 26.5 mph N/A   Clear
7:35 PM 37.4 °F 29.3 °F 26.6 °F 65% 30.18 in 10.0 mi NW 12.7 mph - N/A   Clear
7:55 PM 35.6 °F 28.6 °F 26.6 °F 70% 30.19 in 10.0 mi WNW 9.2 mph - N/A   Clear
8:15 PM 35.6 °F 27.1 °F 24.8 °F 65% 30.19 in 10.0 mi NNW 12.7 mph - N/A   Clear
8:35 PM 33.8 °F 25.3 °F 24.8 °F 70% 30.20 in 10.0 mi NW 11.5 mph - N/A   Partly Cloudy
8:55 PM 33.8 °F 25.3 °F 24.8 °F 70% 30.21 in 10.0 mi NW 11.5 mph - N/A   Mostly Cloudy
9:15 PM 35.6 °F 27.5 °F 24.8 °F 65% 30.22 in 10.0 mi WNW 11.5 mph - N/A   Overcast
9:35 PM 35.6 °F 25.9 °F 23.0 °F 60% 30.23 in 10.0 mi NW 16.1 mph 21.9 mph N/A   Overcast
9:55 PM 35.6 °F 25.2 °F 21.2 °F 56% 30.23 in 10.0 mi NW 18.4 mph 27.6 mph N/A   Overcast
10:15 PM 35.6 °F 23.7 °F 23.0 °F 60% 30.24 in 10.0 mi WNW 24.2 mph 33.4 mph N/A   Overcast
10:35 PM 35.6 °F 23.2 °F 21.2 °F 56% 30.24 in 10.0 mi WNW 26.5 mph 32.2 mph N/A   Overcast
10:55 PM 33.8 °F 19.9 °F 19.4 °F 56% 30.26 in 10.0 mi NW 31.1 mph 42.6 mph N/A   Overcast
11:15 PM 30.2 °F 15.4 °F 19.4 °F 64% 30.28 in 10.0 mi WNW 28.8 mph 35.7 mph N/A   Overcast
11:35 PM 28.4 °F 13.5 °F 17.6 °F 64% 30.30 in 10.0 mi NW 26.5 mph 39.1 mph N/A   Mostly Cloudy
11:55 PM 28.4 °F 12.7 °F 15.8 °F 59% 30.31 in 10.0 mi NW 29.9 mph 34.5 mph N/A   Mostly Cloudy